Notices

What's New in latest Release from April 7th, 2021:

- Updated Glossary, including Speed of Maximum Gust, and Total Hourly Precipitation

- Updated national and regional climate services offices contacts and prices information

- Addition of station inventory lists for 1981-2010, 1971-2000, and 1961-1990 Normals.

If you haven't already, please take our survey and provide feedback about our website: https://eccc.sondage-survey.ca/f/LanguageSelection.aspx?s=442ca660-fcf1-47c0-95a9-59707d6fd709

Hourly Data Report for May 08, 2020

TRENTON A
ONTARIO
Current Station Operator: DND

44°07'00.000" N
77°32'00.000" W
86.30 m
6158875
71621
YTR

Download Data

Hourly Data (May 2020)
Hourly Data Report for May 8, 2020
TIME
LST
Temp Definition
°C
Dew Point Definition
°C
Rel Hum Definition
%
Precip. Amount Definition
mm

Wind Dir Definition
10's deg

Wind Spd Definition
km/h
Visibility Definition
km
Stn Press Definition
kPa
Hmdx Definition


Wind Chill Definition


Weather Definition


00:00 2.2 -2.4 70   25 9 24.1 99.93     Clear
01:00 2.0 -3.3 66   27 11 24.1 99.90     Clear
02:00 1.4 -3.7 66   25 18 24.1 99.86     Clear
03:00 2.0 -4.5 59   28 22 24.1 99.87     Clear
04:00 1.1 -4.8 62   24 15 24.1 99.82     Clear
05:00 0.2 -5.2 64   25 11 24.1 99.88     Mainly Clear
06:00 1.3 -5.2 59   29 13 24.1 99.90     Clear
07:00 2.1 -6.1 51   31 24 24.1 99.82     Mainly Clear
08:00 3.6 -5.8 47   31 22 24.1 99.88     Mostly Cloudy
09:00 4.8 -5.2 46   26 26 24.1 99.92     Mostly Cloudy
10:00 4.9 -6.0 43   30 30 24.1 99.88     Mostly Cloudy
11:00 6.8 -6.2 37   26 18 24.1 99.84     Cloudy
12:00 6.3 -7.9 33   31 17 24.1 99.80     Cloudy
13:00 7.0 -8.8 29   25 18 24.1 99.77     Cloudy
14:00 7.0 -9.5 27   26 28 24.1 99.73     Mostly Cloudy
15:00 6.8 -10.0 26   28 17 24.1 99.70     Mostly Cloudy
16:00 6.9 -8.3 30   28 28 24.1 99.69     Cloudy
17:00 5.5 -9.6 30   34 24 24.1 99.75     Mainly Clear
18:00 4.2 -9.1 34   30 26 24.1 99.79     Mainly Clear
19:00 1.1 -4.9 61   32 22 24.1 99.89     Mainly Clear
20:00 -0.2 -5.4 65   34 17 24.1 99.93   -5 Mainly Clear
21:00 -0.1 -6.4 59   33 11 24.1 100.00   -4 Mostly Cloudy
22:00 -0.2 -7.0 56   33 18 24.1 100.02   -5 Mainly Clear
23:00 -0.5 -6.8 59   32 17 24.1 100.03   -5 Mainly Clear

Notes on Data Quality.

Legend

  • E = Estimated
  • M = Missing
  • NA = Not Available*
  • [empty] = Indicates an unobserved value
Date modified: